This is the latest recevied weather packets stored in our database for station/object XE2RCS-1. If no packets are shown the sender has not sent any weather packets the latest 1 day(s).
| Time | Temp. | Humidity | Pressure | Rain* | Wind** | Luminosity | Snow |
|---|---|---|---|---|---|---|---|
| 1778035725 | 28.33° C | 28% | 1008 hPa | 0 mm | 8.05 m/s, 350° | - | - |
| 1778035124 | 28.33° C | 28% | 1008 hPa | 0 mm | 8.05 m/s, 350° | - | - |
| 1778034524 | 29.44° C | 23% | 1007 hPa | 0 mm | 8.05 m/s, 350° | - | - |
| 1778033923 | 29.44° C | 21% | 1007 hPa | 0 mm | 8.05 m/s, 350° | - | - |
| 1778033322 | 29.44° C | 21% | 1007 hPa | 0 mm | 8.05 m/s, 350° | - | - |
| 1778032722 | 29.44° C | 19% | 1007 hPa | 0 mm | 8.05 m/s, 350° | - | - |
| 1778032121 | 30° C | 18% | 1007 hPa | 0 mm | 8.05 m/s, 350° | - | - |
| 1778031521 | 30° C | 18% | 1007 hPa | 0 mm | 8.05 m/s, 350° | - | - |
| 1778030920 | 30.56° C | 10% | 1006 hPa | 0 mm | 8.05 m/s, 350° | - | - |
| 1778030319 | 31.11° C | 11% | 1006 hPa | 0 mm | 8.05 m/s, 350° | - | - |
| 1778029719 | 31.67° C | 13% | 1006 hPa | 0 mm | 8.05 m/s, 350° | - | - |
| 1778029118 | 32.22° C | 10% | 1006 hPa | 0 mm | 8.05 m/s, 350° | - | - |
| 1778028517 | 32.22° C | 10% | 1005 hPa | 0 mm | 8.05 m/s, 350° | - | - |
| 1778027917 | 32.22° C | 11% | 1005 hPa | 0 mm | 8.05 m/s, 350° | - | - |
| 1778027316 | 32.78° C | 11% | 1004 hPa | 0 mm | 8.05 m/s, 350° | - | - |
| 1778026716 | 33.89° C | 12% | 1004 hPa | 0 mm | 8.05 m/s, 350° | - | - |
| 1778026115 | 33.89° C | 12% | 1004 hPa | 0 mm | 8.05 m/s, 350° | - | - |
| 1778025514 | 33.33° C | 10% | 1004 hPa | 0 mm | 8.05 m/s, 350° | - | - |
| 1778024914 | 33.89° C | 10% | 1004 hPa | 0 mm | 8.05 m/s, 350° | - | - |
| 1778024316 | 33.89° C | 11% | 1004 hPa | 0 mm | 8.05 m/s, 350° | - | - |
| 1778023713 | 33.89° C | 11% | 1004 hPa | 0 mm | 8.05 m/s, 350° | - | - |
| 1778023112 | 33.89° C | 11% | 1004 hPa | 0 mm | 8.05 m/s, 350° | - | - |
| 1778022511 | 33.89° C | 12% | 1004 hPa | 0 mm | 8.05 m/s, 350° | - | - |
| 1778021911 | 33.89° C | 11% | 1004 hPa | 0 mm | 8.05 m/s, 350° | - | - |
| 1778021310 | 34.44° C | 11% | 1004 hPa | 0 mm | 8.05 m/s, 350° | - | - |
* Rain latest hour (hover to see other rain measurements)
** Current wind speed in m/s (hover to see current wind gust speed)